This is the latest recevied weather packets stored in our database for station/object DC1NF-7. If no packets are shown the sender has not sent any weather packets the latest 10 day(s).
| Time | Temp. | Humidity | Pressure | Rain* | Wind** | Luminosity | Snow |
|---|---|---|---|---|---|---|---|
| 1777744555 | 25° C | 28% | 1016.9 hPa | 0 mm | - | 37 W/m² | - |
| 1777743948 | 25° C | 28% | 1016.9 hPa | 0 mm | - | 50 W/m² | - |
| 1777743347 | 25.56° C | 28% | 1017 hPa | 0 mm | - | 66 W/m² | - |
| 1777742740 | 25.56° C | 27% | 1017 hPa | 0 mm | - | 88 W/m² | - |
| 1777742137 | 25.56° C | 27% | 1017.1 hPa | 0 mm | - | 113 W/m² | - |
| 1777741537 | 25.56° C | 27% | 1017.2 hPa | 0 mm | - | 133 W/m² | - |
| 1777740929 | 25.56° C | 27% | 1017.2 hPa | 0 mm | - | 140 W/m² | - |
| 1777740328 | 26.11° C | 27% | 1017.4 hPa | 0 mm | - | 155 W/m² | - |
| 1777739722 | 26.67° C | 25% | 1017.5 hPa | 0 mm | - | 154 W/m² | - |
| 1777739118 | 26.67° C | 24% | 1017.6 hPa | 0 mm | - | 165 W/m² | - |
| 1777738515 | 26.11° C | 25% | 1017.8 hPa | 0 mm | - | 171 W/m² | - |
| 1777737972 | 26.67° C | 24% | 1017.8 hPa | 0 mm | - | 182 W/m² | - |
| 1777737372 | 27.78° C | 23% | 1017.8 hPa | 0 mm | - | 210 W/m² | - |
| 1777736769 | 27.22° C | 23% | 1018 hPa | 0 mm | - | 255 W/m² | - |
| 1777736166 | 27.22° C | 23% | 1018.1 hPa | 0 mm | - | 264 W/m² | - |
| 1777735558 | 27.22° C | 24% | 1018.2 hPa | 0 mm | - | 293 W/m² | - |
| 1777734954 | 27.22° C | 24% | 1018.2 hPa | 0 mm | - | 272 W/m² | - |
| 1777734350 | 27.78° C | 23% | 1018.3 hPa | 0 mm | - | 341 W/m² | - |
| 1777733747 | 27.78° C | 24% | 1018.5 hPa | 0 mm | - | 348 W/m² | - |
| 1777733144 | 28.33° C | 24% | 1018.6 hPa | 0 mm | - | 408 W/m² | - |
| 1777732539 | 28.89° C | 23% | 1018.7 hPa | 0 mm | - | 474 W/m² | - |
| 1777731935 | 27.78° C | 24% | 1018.8 hPa | 0 mm | - | 538 W/m² | - |
| 1777731334 | 27.22° C | 24% | 1019 hPa | 0 mm | - | 569 W/m² | - |
| 1777730730 | 28.33° C | 23% | 1019.1 hPa | 0 mm | - | 599 W/m² | - |
| 1777730123 | 27.78° C | 23% | 1019.2 hPa | 0 mm | - | 603 W/m² | - |
* Rain latest hour (hover to see other rain measurements)
** Current wind speed in m/s (hover to see current wind gust speed)